Regional Weather Roundup
Issued by NWS Cleveland, OH

Home | Current Version | Previous Version | Text Only | Print | Product List | Glossary Off
Versions: 1 2 3 4 5 6 7 8 9 10 11 12 13 14 15 16 17 18 19 20 21 22 23 24 25 26 27 28 29 30 31 32 33 34 35 36 37 38 39 40 41 42 43 44 45 46 47 48 49 50

000
ASUS41 KCLE 221810
RWRCLE
OHIO REGIONAL WEATHER ROUNDUP
NATIONAL WEATHER SERVICE WILMINGTON, OH
200 PM EDT FRI AUG 22 2014

NOTE: "FAIR" INDICATES FEW OR NO CLOUDS BELOW 12,000 FEET WITH NO
SIGNIFICANT WEATHER AND/OR OBSTRUCTIONS TO VISIBILITY.

OHZ001>008-015>018-024>027-034-035-043-044-221900-
   NORTHWEST OHIO

CITY           SKY/WX    TMP DP  RH WIND       PRES   REMARKS
DEFIANCE       CLOUDY    83  71  67 NW5       29.96S
FINDLAY        PTSUNNY   84  72  67 NW6       29.95S
TOLEDO EXPRESS CLOUDY    82  71  69 NE7       29.95F
TOLEDO METCALF CLOUDY    81  71  71 N6        29.96F
LIMA           CLOUDY    82  72  71 W8        29.98R
$$

OHZ009>014-019>023-028>033-038-089-221900-
   NORTHEAST OHIO

CITY           SKY/WX    TMP DP  RH WIND       PRES   REMARKS
CLE-HOPKINS    MOSUNNY   82  73  74 N7        29.99S
CLE-LAKEFRONT  PTSUNNY   77  71  82 N7        29.98R
CUY CO. ARPT   PTSUNNY   79  73  83 N7        30.00R
LORAIN-ELYRIA  PTSUNNY   83  73  72 N7        29.97F
ASHTABULA      PTSUNNY   79  69  71 CALM      30.00R
AKRON-CANTON   PTSUNNY   79  68  69 SW5       29.99S
WOOSTER        PTSUNNY   84  70  62 CALM      29.99F
MANSFIELD      MOSUNNY   83  69  62 VRB5      29.99F
YOUNGSTOWN     PTSUNNY   80  67  64 CALM      30.00S
$$

OHZ042-051>053-060>062-070>072-077>081-221900-
  SOUTHWEST OHIO

CITY           SKY/WX    TMP DP  RH WIND       PRES   REMARKS
CINC-COVINGTON CLOUDY    81  74  79 W6        30.01R
CINC-LUNKEN    CLOUDY    82  75  79 SW9       29.99R
HAMILTON       CLOUDY    80  75  84 VRB7      29.99S
DAYTON         PTSUNNY   83  73  72 W9        30.00R
WRIGHT-PAT AFB PTSUNNY   82  74  77 W8        29.99R
DAYTON GENERAL CLOUDY    79  73  82 W7        29.99R
WILMINGTON     CLOUDY    80  73  79 S7        29.99F
$$

OHZ036-037-039>041-045>050-054>059-063>069-073>076-082>088-221900-
  CENTRAL AND SOUTHEAST OHIO

CITY           SKY/WX    TMP DP  RH WIND       PRES   REMARKS
COLUMBUS       CLOUDY    82  70  66 S7        29.98F
OSU AIRPORT    PTSUNNY   80  70  71 SE3       29.97F
BOLTON FIELD   CLOUDY    79  73  83 S8        29.99F
RICKENBACK AFB CLOUDY    80  68  66 S7        29.98F
NEWARK         PTSUNNY   80  71  74 VRB5      29.98F
MARION         MOSUNNY   83  70  64 CALM      29.97F
LANCASTER      PTSUNNY   80  71  74 VRB5      30.00F
ZANESVILLE     PTSUNNY   79  70  74 S6        29.99F
NEW PHILLY     CLOUDY    77  72  84 S5        30.00F
$$


USA.gov is the U.S. government's official web portal to all federal, state and local government web resources and services.